Orbital Elements at Epoch 2459200.5 (2020-Dec-17.0) TDB
Reference: JPL 21 (heliocentric ecliptic J2000)
Element | Value | Uncertainty (1-sigma) | Units |
e | .2003617538670917 | 2.7225e-08 | |
a | 2.358315728461506 | 7.7687e-09 | au |
q | 1.885799452934611 | 6.4383e-08 | au |
i | 1.312881296211223 | 4.6159e-06 | deg |
node | 212.6283732974996 | 0.000141 | deg |
peri | 71.69452435505011 | 0.00014161 | deg |
M | 105.5983818873568 | 1.3894e-05 | deg |
tp | 2458812.478213618820 (2019-Nov-24.97821362) | 5e-05 | TDB |
period | 1322.821814128096 3.62 | 6.5364e-06 1.79e-08 | d yr |
n | .2721454969634627 | 1.3447e-09 | deg/d |
Q | 2.830832003988401 | 9.3252e-09 | au |
|
| | Orbit Determination Parameters
Additional Information
|